Location: Newark
(45.7667°N, 11.5167°E)
Time: 19:49:35
(UTC+00:00)

Envisat - Pass Details

Date: 02 February 2020
Orbit: 764 x 766 km, 98.1° (Epoch: 22 February)

Event Time Altitude Azimuth Distance (km) Brightness Sun altitude
Rises 04:34:55 0° 30° (NNE) 3,241 6.6 -21.2°
Reaches altitude 10° 04:38:16 10° 53° (NE) 2,309 6.2 -20.6°
Maximum altitude 04:41:10 15° 88° (E) 1,966 6.2 -20.1°
Drops below altitude 10° 04:44:03 10° 124° (ESE) 2,298 6.4 -19.6°
Sets 04:47:21 0° 147° (SSE) 3,218 6.8 -19.0°
